sat.trackr.live / text

‹ back to catalog

STARLINK-34728

NORAD 65455 · 2025-194X

PAYLOAD ACTIVE UNKNOWN

§ Identity

Operator
Country
US
Launch date
2025-09-03
Launch site
AFWTR
Launch vehicle
Mass (kg)
RCS (m²)

Purposes: comms

External: N2YO · Heavens-Above · Gunter

§ Orbital elements

Epoch: 2026-09-20T13:15:27.931968Z

Period
93.91 min
Inclination
97.2852°
Eccentricity
0.0001478
Mean motion
15.33445358 rev/d
Perigee alt
464.5 km
Apogee alt
466.6 km
Semi-major
6,843.7 km
B*
3.4338e-4
RAAN
113.1624°
Arg perigee
39.6175°
Mean anomaly
320.5176°
Rev number
5,907

§ Raw data

STARLINK-347281 65455U 25194X   26263.55240662  .00011027  00000+0  34338-3 0  99992 65455  97.2852 113.1624 0001478  39.6175 320.5176 15.33445358 59075

JSON: /api/v1/satellites/65455 · /tle

For live sub-satellite position, see the globe view (requires WebGL).

§ Visibility from observer

Set your observer location to see the next 7 days of passes ≥ 10°. The values pass through the URL so the page stays shareable.

No JS? Fill the form by hand. The geolocation button needs JavaScript.